,,PressureMeas_1m,,PRMeasQMR101_1,,RHStat155_1m_1,,SRMeasQMS101R_1m,,TAStat155_1m_1,,GenWind_1,,GenWind_1,
2018-04-06, 07:00:06,VALID,915.687,VALID,0.0,VALID,93.596,VALID,88.748,VALID,21.136,VALID,96.0,VALID,1.306,
2018-04-06, 07:01:06,VALID,915.706,VALID,0.0,VALID,93.569,VALID,92.567,VALID,21.151,VALID,80.0,VALID,1.18,
2018-04-06, 07:02:06,VALID,915.726,VALID,0.0,VALID,93.875,VALID,96.777,VALID,21.133,VALID,84.0,VALID,1.463,
2018-04-06, 07:03:06,VALID,915.773,VALID,0.0,VALID,93.878,VALID,101.148,VALID,21.101,VALID,86.0,VALID,1.421,
2018-04-06, 07:04:06,VALID,915.804,VALID,0.0,VALID,94.401,VALID,105.728,VALID,21.106,VALID,95.0,VALID,1.055,
2018-04-06, 07:05:06,VALID,915.85,VALID,0.0,VALID,94.535,VALID,110.733,VALID,21.128,VALID,106.0,VALID,1.085,
2018-04-06, 07:06:06,VALID,915.895,VALID,0.0,VALID,94.474,VALID,116.249,VALID,21.165,VALID,99.0,VALID,0.75,
2018-04-06, 07:07:06,VALID,915.926,VALID,0.0,VALID,94.264,VALID,122.416,VALID,21.205,VALID,98.0,VALID,1.153,
2018-04-06, 07:08:06,VALID,915.972,VALID,0.0,VALID,94.117,VALID,129.438,VALID,21.245,VALID,107.0,VALID,0.996,
2018-04-06, 07:09:06,VALID,916.008,VALID,0.0,VALID,94.084,VALID,138.231,VALID,21.305,VALID,89.0,VALID,1.0,
2018-04-06, 07:10:06,VALID,916.043,VALID,0.0,VALID,93.883,VALID,150.701,VALID,21.371,VALID,103.0,VALID,1.141,
2018-04-06, 07:11:06,VALID,916.059,VALID,0.0,VALID,93.273,VALID,166.364,VALID,21.395,VALID,114.0,VALID,1.524,
2018-04-06, 07:12:06,VALID,916.081,VALID,0.0,VALID,93.179,VALID,183.342,VALID,21.423,VALID,115.0,VALID,1.545,
2018-04-06, 07:13:06,VALID,916.097,VALID,0.0,VALID,92.889,VALID,198.887,VALID,21.474,VALID,110.0,VALID,1.207,
2018-04-06, 07:14:06,VALID,916.109,VALID,0.0,VALID,93.145,VALID,209.24,VALID,21.556,VALID,97.0,VALID,0.927,
2018-04-06, 07:15:06,VALID,916.122,VALID,0.0,VALID,92.746,VALID,217.475,VALID,21.658,VALID,103.0,VALID,1.027,
2018-04-06, 07:16:06,VALID,916.145,VALID,0.0,VALID,92.362,VALID,225.607,VALID,21.747,VALID,87.0,VALID,1.18,
2018-04-06, 07:17:06,VALID,916.162,VALID,0.0,VALID,91.975,VALID,232.81,VALID,21.81,VALID,91.0,VALID,1.691,
2018-04-06, 07:18:06,VALID,916.191,VALID,0.0,VALID,91.046,VALID,240.246,VALID,21.877,VALID,93.0,VALID,1.561,
2018-04-06, 07:19:06,VALID,916.214,VALID,0.0,VALID,91.009,VALID,244.757,VALID,21.966,VALID,91.0,VALID,1.579,
2018-04-06, 07:20:06,VALID,916.233,VALID,0.0,VALID,90.664,VALID,267.491,VALID,22.087,VALID,93.0,VALID,1.706,
2018-04-06, 07:21:06,VALID,916.247,VALID,0.0,VALID,90.109,VALID,292.413,VALID,22.186,VALID,92.0,VALID,1.645,
2018-04-06, 07:22:06,VALID,916.275,VALID,0.0,VALID,90.467,VALID,296.766,VALID,22.369,VALID,89.0,VALID,1.138,
2018-04-06, 07:23:06,VALID,916.288,VALID,0.0,VALID,89.43,VALID,295.951,VALID,22.58,VALID,99.0,VALID,1.454,
2018-04-06, 07:24:06,VALID,916.327,VALID,0.0,VALID,88.278,VALID,290.116,VALID,22.61,VALID,116.0,VALID,1.972,
2018-04-06, 07:25:06,VALID,916.347,VALID,0.0,VALID,88.851,VALID,297.814,VALID,22.433,VALID,111.0,VALID,1.737,
2018-04-06, 07:26:06,VALID,916.368,VALID,0.0,VALID,89.849,VALID,301.157,VALID,22.338,VALID,121.0,VALID,1.852,
2018-04-06, 07:27:06,VALID,916.368,VALID,0.0,VALID,90.076,VALID,304.964,VALID,22.241,VALID,121.0,VALID,1.752,
2018-04-06, 07:28:06,VALID,916.395,VALID,0.0,VALID,90.239,VALID,311.288,VALID,22.205,VALID,120.0,VALID,2.065,
2018-04-06, 07:29:06,VALID,916.41,VALID,0.0,VALID,89.451,VALID,319.775,VALID,22.24,VALID,105.0,VALID,1.839,
2018-04-06, 07:30:06,VALID,916.414,VALID,0.0,VALID,89.003,VALID,333.599,VALID,22.306,VALID,104.0,VALID,1.585,
2018-04-06, 07:31:06,VALID,916.434,VALID,0.0,VALID,89.351,VALID,343.811,VALID,22.434,VALID,98.0,VALID,1.861,
2018-04-06, 07:32:06,VALID,916.441,VALID,0.0,VALID,88.449,VALID,350.29,VALID,22.532,VALID,98.0,VALID,1.304,
2018-04-06, 07:33:06,VALID,916.45,VALID,0.0,VALID,88.477,VALID,349.906,VALID,22.692,VALID,96.0,VALID,1.654,
2018-04-06, 07:34:06,VALID,916.453,VALID,0.0,VALID,86.873,VALID,352.062,VALID,22.778,VALID,99.0,VALID,1.723,
2018-04-06, 07:35:06,VALID,916.475,VALID,0.0,VALID,86.062,VALID,353.399,VALID,22.8,VALID,88.0,VALID,1.836,
2018-04-06, 07:36:06,VALID,916.486,VALID,0.0,VALID,87.742,VALID,356.086,VALID,22.752,VALID,78.0,VALID,1.455,
2018-04-06, 07:37:06,VALID,916.512,VALID,0.0,VALID,87.158,VALID,359.55,VALID,22.895,VALID,95.0,VALID,1.243,
2018-04-06, 07:38:06,VALID,916.527,VALID,0.0,VALID,85.781,VALID,362.411,VALID,23.062,VALID,89.0,VALID,1.916,
2018-04-06, 07:39:06,VALID,916.546,VALID,0.0,VALID,86.611,VALID,360.88,VALID,23.038,VALID,93.0,VALID,1.487,
2018-04-06, 07:40:06,VALID,916.556,VALID,0.0,VALID,86.673,VALID,355.159,VALID,23.164,VALID,97.0,VALID,1.405,
2018-04-06, 07:41:06,VALID,916.575,VALID,0.0,VALID,85.523,VALID,350.976,VALID,23.29,VALID,99.0,VALID,1.789,
2018-04-06, 07:42:06,VALID,916.58,VALID,0.0,VALID,84.028,VALID,355.312,VALID,23.375,VALID,91.0,VALID,1.541,
2018-04-06, 07:43:06,VALID,916.572,VALID,0.0,VALID,85.095,VALID,362.169,VALID,23.446,VALID,73.0,VALID,1.573,
2018-04-06, 07:44:06,VALID,916.568,VALID,0.0,VALID,85.373,VALID,365.847,VALID,23.589,VALID,99.0,VALID,1.532,
2018-04-06, 07:45:06,VALID,916.565,VALID,0.0,VALID,82.969,VALID,362.91,VALID,23.644,VALID,107.0,VALID,1.776,
2018-04-06, 07:46:06,VALID,916.562,VALID,0.0,VALID,84.02,VALID,360.855,VALID,23.592,VALID,113.0,VALID,1.609,
2018-04-06, 07:47:07,VALID,916.564,VALID,0.0,VALID,84.377,VALID,363.429,VALID,23.582,VALID,107.0,VALID,1.772,
2018-04-06, 07:48:07,VALID,916.573,VALID,0.0,VALID,81.996,VALID,373.3,VALID,23.562,VALID,96.0,VALID,2.104,
2018-04-06, 07:49:07,VALID,916.568,VALID,0.0,VALID,82.862,VALID,380.103,VALID,23.396,VALID,91.0,VALID,2.086,
2018-04-06, 07:50:07,VALID,916.57,VALID,0.0,VALID,85.471,VALID,382.738,VALID,23.269,VALID,98.0,VALID,1.629,
2018-04-06, 07:51:07,VALID,916.575,VALID,0.0,VALID,86.637,VALID,388.685,VALID,23.398,VALID,119.0,VALID,1.545,
2018-04-06, 07:52:07,VALID,916.593,VALID,0.0,VALID,84.414,VALID,395.465,VALID,23.522,VALID,118.0,VALID,1.688,
2018-04-06, 07:53:07,VALID,916.608,VALID,0.0,VALID,84.001,VALID,397.971,VALID,23.656,VALID,108.0,VALID,2.075,
2018-04-06, 07:54:07,VALID,916.616,VALID,0.0,VALID,83.421,VALID,397.495,VALID,23.707,VALID,90.0,VALID,1.849,
2018-04-06, 07:55:07,VALID,916.638,VALID,0.0,VALID,84.504,VALID,394.019,VALID,23.755,VALID,107.0,VALID,1.845,
2018-04-06, 07:56:07,VALID,916.656,VALID,0.0,VALID,82.906,VALID,387.738,VALID,23.755,VALID,95.0,VALID,2.023,
2018-04-06, 07:57:07,VALID,916.684,VALID,0.0,VALID,82.862,VALID,372.873,VALID,23.837,VALID,108.0,VALID,1.33,
2018-04-06, 07:58:07,VALID,916.697,VALID,0.0,VALID,84.059,VALID,350.608,VALID,23.929,VALID,141.0,VALID,0.899,
2018-04-06, 07:59:07,VALID,916.718,VALID,0.0,VALID,82.98,VALID,349.233,VALID,24.054,VALID,127.0,VALID,0.97,
2018-04-06, 08:00:07,VALID,916.755,VALID,0.0,VALID,82.464,VALID,286.505,VALID,24.156,VALID,143.0,VALID,1.097,
2018-04-06, 08:01:07,VALID,916.766,VALID,0.0,VALID,80.985,VALID,208.673,VALID,24.144,VALID,124.0,VALID,1.404,
2018-04-06, 08:02:07,VALID,916.78,VALID,0.0,VALID,81.784,VALID,186.568,VALID,23.912,VALID,127.0,VALID,1.895,
2018-04-06, 08:03:07,VALID,916.802,VALID,0.0,VALID,82.626,VALID,191.958,VALID,23.748,VALID,76.0,VALID,1.52,
2018-04-06, 08:04:07,VALID,916.824,VALID,0.0,VALID,81.66,VALID,198.509,VALID,23.641,VALID,95.0,VALID,1.394,
2018-04-06, 08:05:07,VALID,916.857,VALID,0.0,VALID,83.269,VALID,205.159,VALID,23.572,VALID,101.0,VALID,1.684,
2018-04-06, 08:06:07,VALID,916.886,VALID,0.0,VALID,83.194,VALID,207.608,VALID,23.508,VALID,98.0,VALID,1.602,
2018-04-06, 08:07:07,VALID,916.912,VALID,0.0,VALID,82.613,VALID,201.786,VALID,23.487,VALID,99.0,VALID,2.132,
2018-04-06, 08:08:07,VALID,916.948,VALID,0.0,VALID,82.886,VALID,195.246,VALID,23.453,VALID,97.0,VALID,2.107,
2018-04-06, 08:09:07,VALID,916.975,VALID,0.0,VALID,82.951,VALID,189.728,VALID,23.388,VALID,93.0,VALID,2.255,
2018-04-06, 08:10:07,VALID,916.992,VALID,0.0,VALID,83.37,VALID,185.665,VALID,23.328,VALID,98.0,VALID,0.93,
2018-04-06, 08:11:07,VALID,917.015,VALID,0.0,VALID,84.927,VALID,183.801,VALID,23.393,VALID,106.0,VALID,1.221,
2018-04-06, 08:12:07,VALID,917.04,VALID,0.0,VALID,84.217,VALID,184.585,VALID,23.461,VALID,133.0,VALID,1.091,
2018-04-06, 08:13:07,VALID,917.062,VALID,0.0,VALID,83.482,VALID,188.516,VALID,23.508,VALID,111.0,VALID,1.441,
2018-04-06, 08:14:07,VALID,917.085,VALID,0.0,VALID,84.174,VALID,190.845,VALID,23.457,VALID,112.0,VALID,1.414,
2018-04-06, 08:15:07,VALID,917.113,VALID,0.0,VALID,83.935,VALID,193.052,VALID,23.377,VALID,122.0,VALID,1.494,
2018-04-06, 08:16:07,VALID,917.118,VALID,0.0,VALID,83.979,VALID,195.686,VALID,23.329,VALID,122.0,VALID,1.755,
2018-04-06, 08:17:07,VALID,917.146,VALID,0.0,VALID,83.816,VALID,200.485,VALID,23.333,VALID,122.0,VALID,1.302,
2018-04-06, 08:18:07,VALID,917.16,VALID,0.0,VALID,84.588,VALID,205.342,VALID,23.383,VALID,127.0,VALID,1.502,
2018-04-06, 08:19:07,VALID,917.17,VALID,0.0,VALID,83.981,VALID,209.394,VALID,23.39,VALID,139.0,VALID,0.788,
2018-04-06, 08:20:07,VALID,917.175,VALID,0.0,VALID,85.028,VALID,214.881,VALID,23.491,VALID,134.0,VALID,1.079,
2018-04-06, 08:21:07,VALID,917.167,VALID,0.0,VALID,84.017,VALID,226.685,VALID,23.507,VALID,115.0,VALID,0.877,
2018-04-06, 08:22:07,VALID,917.175,VALID,0.0,VALID,83.248,VALID,249.124,VALID,23.552,VALID,129.0,VALID,1.018,
2018-04-06, 08:23:07,VALID,917.167,VALID,0.0,VALID,82.934,VALID,228.089,VALID,23.564,VALID,124.0,VALID,1.282,
2018-04-06, 08:24:07,VALID,917.163,VALID,0.0,VALID,83.34,VALID,235.614,VALID,23.517,VALID,115.0,VALID,0.8,
2018-04-06, 08:25:07,VALID,917.151,VALID,0.0,VALID,83.679,VALID,247.95,VALID,23.576,VALID,106.0,VALID,0.739,
2018-04-06, 08:26:07,VALID,917.141,VALID,0.0,VALID,83.762,VALID,279.92,VALID,23.708,VALID,93.0,VALID,1.048,
2018-04-06, 08:27:07,VALID,917.132,VALID,0.0,VALID,82.942,VALID,285.765,VALID,23.73,VALID,86.0,VALID,1.195,
2018-04-06, 08:28:07,VALID,917.137,VALID,0.0,VALID,81.43,VALID,318.781,VALID,23.725,VALID,104.0,VALID,1.814,
2018-04-06, 08:29:07,VALID,917.113,VALID,0.0,VALID,82.197,VALID,389.881,VALID,23.716,VALID,109.0,VALID,1.589,
2018-04-06, 08:30:07,VALID,917.11,VALID,0.0,VALID,81.69,VALID,374.986,VALID,23.763,VALID,101.0,VALID,1.398,
2018-04-06, 08:31:07,VALID,917.105,VALID,0.0,VALID,81.717,VALID,404.847,VALID,23.836,VALID,82.0,VALID,1.457,
2018-04-06, 08:32:07,VALID,917.103,VALID,0.0,VALID,82.845,VALID,322.177,VALID,23.886,VALID,103.0,VALID,0.852,
2018-04-06, 08:33:07,VALID,917.104,VALID,0.0,VALID,82.39,VALID,293.835,VALID,23.983,VALID,137.0,VALID,0.266,
2018-04-06, 08:34:07,VALID,917.116,VALID,0.0,VALID,82.249,VALID,271.335,VALID,24.223,VALID,165.0,VALID,0.278,
2018-04-06, 08:35:07,VALID,917.127,VALID,0.0,VALID,79.315,VALID,267.211,VALID,24.311,VALID,151.0,VALID,1.275,
2018-04-06, 08:36:07,VALID,917.137,VALID,0.0,VALID,79.434,VALID,263.861,VALID,24.221,VALID,142.0,VALID,0.634,
2018-04-06, 08:37:07,VALID,917.144,VALID,0.0,VALID,80.021,VALID,260.607,VALID,24.24,VALID,154.0,VALID,0.441,
2018-04-06, 08:38:07,VALID,917.15,VALID,0.0,VALID,79.908,VALID,259.679,VALID,24.256,VALID,127.0,VALID,1.146,
2018-04-06, 08:39:07,VALID,917.151,VALID,0.0,VALID,80.673,VALID,262.268,VALID,24.221,VALID,116.0,VALID,0.534,
2018-04-06, 08:40:07,VALID,917.163,VALID,0.0,VALID,80.628,VALID,273.442,VALID,24.295,VALID,122.0,VALID,0.684,
2018-04-06, 08:41:07,VALID,917.159,VALID,0.0,VALID,80.763,VALID,375.962,VALID,24.366,VALID,127.0,VALID,1.593,
2018-04-06, 08:42:07,VALID,917.16,VALID,0.0,VALID,80.203,VALID,476.968,VALID,24.379,VALID,114.0,VALID,2.285,
2018-04-06, 08:43:07,VALID,917.151,VALID,0.0,VALID,80.673,VALID,527.253,VALID,24.329,VALID,113.0,VALID,1.663,
2018-04-06, 08:44:07,VALID,917.163,VALID,0.0,VALID,80.501,VALID,567.932,VALID,24.432,VALID,104.0,VALID,2.521,
2018-04-06, 08:45:07,VALID,917.152,VALID,0.0,VALID,77.465,VALID,597.417,VALID,24.55,VALID,83.0,VALID,2.194,
2018-04-06, 08:46:07,VALID,917.156,VALID,0.0,VALID,77.323,VALID,607.725,VALID,24.668,VALID,101.0,VALID,1.715,
2018-04-06, 08:47:07,VALID,917.137,VALID,0.0,VALID,78.517,VALID,629.612,VALID,24.812,VALID,119.0,VALID,1.479,
2018-04-06, 08:48:07,VALID,917.153,VALID,0.0,VALID,78.3,VALID,607.473,VALID,25.011,VALID,95.0,VALID,2.216,
2018-04-06, 08:49:07,VALID,917.131,VALID,0.0,VALID,78.745,VALID,596.891,VALID,25.011,VALID,100.0,VALID,1.695,
2018-04-06, 08:50:07,VALID,917.159,VALID,0.0,VALID,79.305,VALID,644.432,VALID,25.241,VALID,65.0,VALID,1.98,
2018-04-06, 08:51:07,VALID,917.142,VALID,0.0,VALID,74.323,VALID,641.573,VALID,25.394,VALID,104.0,VALID,1.805,
2018-04-06, 08:52:07,VALID,917.121,VALID,0.0,VALID,73.33,VALID,670.605,VALID,25.44,VALID,116.0,VALID,1.275,
2018-04-06, 08:53:07,VALID,917.118,VALID,0.0,VALID,73.735,VALID,617.562,VALID,25.369,VALID,87.0,VALID,2.32,
2018-04-06, 08:54:07,VALID,917.109,VALID,0.0,VALID,75.686,VALID,655.546,VALID,25.206,VALID,61.0,VALID,2.802,
2018-04-06, 08:55:07,VALID,917.143,VALID,0.0,VALID,75.508,VALID,645.718,VALID,25.0,VALID,95.0,VALID,2.987,
2018-04-06, 08:56:07,VALID,917.12,VALID,0.0,VALID,75.805,VALID,654.645,VALID,24.893,VALID,64.0,VALID,2.918,
2018-04-06, 08:57:07,VALID,917.11,VALID,0.0,VALID,75.944,VALID,641.983,VALID,24.888,VALID,48.0,VALID,2.52,
2018-04-06, 08:58:07,VALID,917.097,VALID,0.0,VALID,75.914,VALID,397.901,VALID,24.881,VALID,56.0,VALID,2.754,
2018-04-06, 08:59:07,VALID,917.101,VALID,0.0,VALID,76.632,VALID,420.211,VALID,24.704,VALID,50.0,VALID,1.946,
2018-04-06, 09:00:07,VALID,917.128,VALID,0.0,VALID,78.448,VALID,667.462,VALID,24.706,VALID,95.0,VALID,2.573,
2018-04-06, 09:01:07,VALID,917.153,VALID,0.0,VALID,76.85,VALID,655.586,VALID,24.891,VALID,112.0,VALID,2.444,
2018-04-06, 09:02:07,VALID,917.149,VALID,0.0,VALID,76.203,VALID,641.022,VALID,25.04,VALID,105.0,VALID,2.976,
2018-04-06, 09:03:07,VALID,917.139,VALID,0.0,VALID,78.021,VALID,646.738,VALID,25.18,VALID,74.0,VALID,2.829,
2018-04-06, 09:04:07,VALID,917.115,VALID,0.0,VALID,76.23,VALID,646.02,VALID,25.122,VALID,61.0,VALID,3.864,
2018-04-06, 09:05:07,VALID,917.164,VALID,0.0,VALID,75.682,VALID,651.713,VALID,24.894,VALID,78.0,VALID,2.179,
2018-04-06, 09:06:07,VALID,917.165,VALID,0.0,VALID,77.03,VALID,656.599,VALID,24.862,VALID,78.0,VALID,2.684,
2018-04-06, 09:07:07,VALID,917.134,VALID,0.0,VALID,77.886,VALID,661.335,VALID,24.891,VALID,82.0,VALID,2.398,
2018-04-06, 09:08:07,VALID,917.163,VALID,0.0,VALID,77.06,VALID,664.928,VALID,25.04,VALID,106.0,VALID,3.152,
2018-04-06, 09:09:07,VALID,917.168,VALID,0.0,VALID,78.0,VALID,664.586,VALID,25.139,VALID,74.0,VALID,2.35,
2018-04-06, 09:10:07,VALID,917.15,VALID,0.0,VALID,76.696,VALID,650.8,VALID,25.178,VALID,77.0,VALID,3.225,
2018-04-06, 09:11:07,VALID,917.14,VALID,0.0,VALID,76.046,VALID,648.626,VALID,25.018,VALID,96.0,VALID,2.33,
2018-04-06, 09:12:07,VALID,917.131,VALID,0.0,VALID,78.534,VALID,649.548,VALID,25.119,VALID,95.0,VALID,2.116,
2018-04-06, 09:13:07,VALID,917.123,VALID,0.0,VALID,74.585,VALID,668.089,VALID,25.31,VALID,99.0,VALID,1.674,
2018-04-06, 09:14:07,VALID,917.089,VALID,0.0,VALID,75.984,VALID,671.87,VALID,25.34,VALID,153.0,VALID,0.93,
2018-04-06, 09:15:07,VALID,917.091,VALID,0.0,VALID,74.651,VALID,667.305,VALID,25.527,VALID,111.0,VALID,2.736,
2018-04-06, 09:16:07,VALID,917.075,VALID,0.0,VALID,75.749,VALID,667.886,VALID,25.582,VALID,126.0,VALID,3.105,
2018-04-06, 09:17:07,VALID,917.081,VALID,0.0,VALID,74.255,VALID,660.674,VALID,25.507,VALID,117.0,VALID,3.495,
2018-04-06, 09:18:07,VALID,917.074,VALID,0.0,VALID,77.21,VALID,662.762,VALID,25.448,VALID,77.0,VALID,1.63,
2018-04-06, 09:19:07,VALID,917.047,VALID,0.0,VALID,75.844,VALID,668.036,VALID,25.554,VALID,65.0,VALID,1.645,
2018-04-06, 09:20:07,VALID,917.051,VALID,0.0,VALID,76.544,VALID,676.949,VALID,25.646,VALID,89.0,VALID,1.322,
2018-04-06, 09:21:07,VALID,917.055,VALID,0.0,VALID,75.228,VALID,684.612,VALID,25.896,VALID,95.0,VALID,2.35,
2018-04-06, 09:22:07,VALID,917.05,VALID,0.0,VALID,72.163,VALID,692.534,VALID,25.743,VALID,81.0,VALID,2.709,
2018-04-06, 09:23:07,VALID,917.06,VALID,0.0,VALID,74.222,VALID,690.666,VALID,25.469,VALID,84.0,VALID,2.389,
2018-04-06, 09:24:07,VALID,917.053,VALID,0.0,VALID,75.012,VALID,686.781,VALID,25.336,VALID,58.0,VALID,1.968,
2018-04-06, 09:25:07,VALID,917.043,VALID,0.0,VALID,75.28,VALID,683.202,VALID,25.304,VALID,44.0,VALID,2.956,
2018-04-06, 09:26:07,VALID,917.065,VALID,0.0,VALID,75.496,VALID,676.54,VALID,25.353,VALID,41.0,VALID,1.89,
2018-04-06, 09:27:07,VALID,917.079,VALID,0.0,VALID,75.024,VALID,679.659,VALID,25.55,VALID,38.0,VALID,1.565,
2018-04-06, 09:28:07,VALID,917.104,VALID,0.0,VALID,74.596,VALID,679.333,VALID,25.692,VALID,39.0,VALID,1.864,
2018-04-06, 09:29:07,VALID,917.125,VALID,0.0,VALID,74.535,VALID,685.465,VALID,25.794,VALID,97.0,VALID,2.43,
2018-04-06, 09:30:07,VALID,917.127,VALID,0.0,VALID,75.003,VALID,683.185,VALID,25.795,VALID,102.0,VALID,1.636,
2018-04-06, 09:31:07,VALID,917.134,VALID,0.0,VALID,74.954,VALID,672.254,VALID,25.922,VALID,89.0,VALID,1.75,
2018-04-06, 09:32:07,VALID,917.153,VALID,0.0,VALID,74.469,VALID,676.23,VALID,25.974,VALID,85.0,VALID,2.823,
2018-04-06, 09:33:07,VALID,917.142,VALID,0.0,VALID,73.535,VALID,643.209,VALID,25.73,VALID,151.0,VALID,1.548,
2018-04-06, 09:34:07,VALID,917.13,VALID,0.0,VALID,73.421,VALID,692.597,VALID,25.8,VALID,115.0,VALID,0.798,
2018-04-06, 09:35:07,VALID,917.136,VALID,0.0,VALID,74.312,VALID,689.758,VALID,26.12,VALID,53.0,VALID,1.132,
2018-04-06, 09:36:07,VALID,917.13,VALID,0.0,VALID,73.964,VALID,703.67,VALID,26.223,VALID,95.0,VALID,0.623,
2018-04-06, 09:37:07,VALID,917.129,VALID,0.0,VALID,73.669,VALID,718.192,VALID,26.434,VALID,109.0,VALID,2.031,
2018-04-06, 09:38:07,VALID,917.14,VALID,0.0,VALID,71.782,VALID,729.973,VALID,26.437,VALID,108.0,VALID,3.1,
2018-04-06, 09:39:07,VALID,917.13,VALID,0.0,VALID,73.246,VALID,703.061,VALID,26.157,VALID,65.0,VALID,2.369,
2018-04-06, 09:40:07,VALID,917.133,VALID,0.0,VALID,75.293,VALID,670.798,VALID,26.142,VALID,100.0,VALID,2.923,
2018-04-06, 09:41:07,VALID,917.144,VALID,0.0,VALID,72.788,VALID,666.366,VALID,26.016,VALID,111.0,VALID,2.807,
2018-04-06, 09:42:07,VALID,917.162,VALID,0.0,VALID,73.492,VALID,447.683,VALID,25.877,VALID,116.0,VALID,2.985,
2018-04-06, 09:43:07,VALID,917.175,VALID,0.0,VALID,74.132,VALID,481.449,VALID,25.713,VALID,98.0,VALID,2.571,
2018-04-06, 09:44:07,VALID,917.18,VALID,0.0,VALID,72.848,VALID,295.835,VALID,25.575,VALID,83.0,VALID,1.438,
2018-04-06, 09:45:07,VALID,917.17,VALID,0.0,VALID,75.406,VALID,346.644,VALID,25.547,VALID,96.0,VALID,1.311,
2018-04-06, 09:46:07,VALID,917.196,VALID,0.0,VALID,76.21,VALID,624.211,VALID,25.693,VALID,98.0,VALID,1.76,
2018-04-06, 09:47:07,VALID,917.189,VALID,0.0,VALID,74.282,VALID,507.418,VALID,25.787,VALID,82.0,VALID,1.602,
2018-04-06, 09:48:07,VALID,917.182,VALID,0.0,VALID,73.336,VALID,713.803,VALID,25.853,VALID,126.0,VALID,1.563,
2018-04-06, 09:49:07,VALID,917.186,VALID,0.0,VALID,73.601,VALID,916.146,VALID,25.965,VALID,100.0,VALID,2.137,
2018-04-06, 09:50:07,VALID,917.193,VALID,0.0,VALID,73.03,VALID,886.275,VALID,26.018,VALID,97.0,VALID,2.202,
2018-04-06, 09:51:07,VALID,917.197,VALID,0.0,VALID,72.599,VALID,860.763,VALID,26.025,VALID,103.0,VALID,2.464,
2018-04-06, 09:52:07,VALID,917.181,VALID,0.0,VALID,73.301,VALID,653.164,VALID,26.105,VALID,60.0,VALID,0.961,
2018-04-06, 09:53:07,VALID,917.198,VALID,0.0,VALID,73.741,VALID,487.474,VALID,26.326,VALID,98.0,VALID,2.011,
2018-04-06, 09:54:07,VALID,917.197,VALID,0.0,VALID,72.104,VALID,320.975,VALID,26.304,VALID,111.0,VALID,1.263,
2018-04-06, 09:55:07,VALID,917.195,VALID,0.0,VALID,72.735,VALID,379.674,VALID,26.214,VALID,114.0,VALID,1.854,
2018-04-06, 09:56:07,VALID,917.195,VALID,0.0,VALID,71.888,VALID,593.157,VALID,26.011,VALID,116.0,VALID,1.898,
2018-04-06, 09:57:06,VALID,917.193,VALID,0.0,VALID,73.513,VALID,897.662,VALID,25.914,VALID,116.0,VALID,1.96,
2018-04-06, 09:58:06,VALID,917.186,VALID,0.0,VALID,72.852,VALID,911.822,VALID,26.076,VALID,130.0,VALID,1.698,
2018-04-06, 09:59:06,VALID,917.187,VALID,0.0,VALID,72.282,VALID,915.237,VALID,26.244,VALID,96.0,VALID,1.855,
2018-04-06, 10:00:06,VALID,917.182,VALID,0.0,VALID,73.333,VALID,940.426,VALID,26.403,VALID,79.0,VALID,1.445,
2018-04-06, 10:01:06,VALID,917.175,VALID,0.0,VALID,73.355,VALID,962.693,VALID,26.555,VALID,67.0,VALID,1.414,
2018-04-06, 10:02:06,VALID,917.188,VALID,0.0,VALID,70.629,VALID,741.357,VALID,26.815,VALID,102.0,VALID,1.312,
2018-04-06, 10:03:06,VALID,917.178,VALID,0.0,VALID,69.481,VALID,937.351,VALID,26.835,VALID,99.0,VALID,1.256,
2018-04-06, 10:04:06,VALID,917.157,VALID,0.0,VALID,70.431,VALID,542.419,VALID,26.87,VALID,99.0,VALID,0.798,
2018-04-06, 10:05:06,VALID,917.148,VALID,0.0,VALID,69.907,VALID,556.321,VALID,27.106,VALID,123.0,VALID,0.411,
2018-04-06, 10:06:06,VALID,917.138,VALID,0.0,VALID,70.752,VALID,689.292,VALID,27.37,VALID,55.0,VALID,1.175,
2018-04-06, 10:07:06,VALID,917.126,VALID,0.0,VALID,68.414,VALID,895.533,VALID,27.282,VALID,69.0,VALID,0.919,
2018-04-06, 10:08:06,VALID,917.121,VALID,0.0,VALID,69.724,VALID,619.513,VALID,27.219,VALID,104.0,VALID,1.94,
2018-04-06, 10:09:06,VALID,917.114,VALID,0.0,VALID,67.547,VALID,770.858,VALID,27.063,VALID,91.0,VALID,1.374,
2018-04-06, 10:10:06,VALID,917.092,VALID,0.0,VALID,69.701,VALID,543.336,VALID,26.974,VALID,67.0,VALID,0.736,
2018-04-06, 10:11:06,VALID,917.091,VALID,0.0,VALID,69.797,VALID,374.233,VALID,26.991,VALID,77.0,VALID,1.379,
2018-04-06, 10:12:06,VALID,917.076,VALID,0.0,VALID,71.093,VALID,500.969,VALID,26.909,VALID,55.0,VALID,1.092,
2018-04-06, 10:13:06,VALID,917.073,VALID,0.0,VALID,69.968,VALID,407.826,VALID,26.877,VALID,64.0,VALID,1.857,
2018-04-06, 10:14:06,VALID,917.078,VALID,0.0,VALID,69.763,VALID,514.699,VALID,26.562,VALID,109.0,VALID,2.62,
2018-04-06, 10:15:06,VALID,917.07,VALID,0.0,VALID,71.062,VALID,448.076,VALID,26.289,VALID,94.0,VALID,1.7,
2018-04-06, 10:16:06,VALID,917.057,VALID,0.0,VALID,71.246,VALID,373.836,VALID,26.275,VALID,147.0,VALID,1.257,
2018-04-06, 10:17:06,VALID,917.059,VALID,0.0,VALID,71.423,VALID,344.383,VALID,26.422,VALID,110.0,VALID,1.8,
2018-04-06, 10:18:06,VALID,917.078,VALID,0.0,VALID,69.578,VALID,330.582,VALID,26.358,VALID,112.0,VALID,1.594,
2018-04-06, 10:19:06,VALID,917.068,VALID,0.0,VALID,69.323,VALID,327.399,VALID,26.146,VALID,121.0,VALID,1.311,
2018-04-06, 10:20:06,VALID,917.066,VALID,0.0,VALID,70.937,VALID,339.01,VALID,25.992,VALID,116.0,VALID,0.724,
2018-04-06, 10:21:06,VALID,917.074,VALID,0.0,VALID,70.961,VALID,346.388,VALID,26.103,VALID,119.0,VALID,0.679,
2018-04-06, 10:22:06,VALID,917.077,VALID,0.0,VALID,70.647,VALID,348.075,VALID,26.158,VALID,129.0,VALID,1.413,
2018-04-06, 10:23:06,VALID,917.057,VALID,0.0,VALID,70.771,VALID,345.87,VALID,26.139,VALID,102.0,VALID,1.319,
2018-04-06, 10:24:06,VALID,917.048,VALID,0.0,VALID,70.706,VALID,335.554,VALID,26.163,VALID,173.0,VALID,1.511,
2018-04-06, 10:25:06,VALID,917.048,VALID,0.0,VALID,70.097,VALID,318.291,VALID,26.169,VALID,173.0,VALID,1.834,
2018-04-06, 10:26:06,VALID,917.052,VALID,0.0,VALID,69.319,VALID,301.411,VALID,26.164,VALID,123.0,VALID,0.859,
2018-04-06, 10:27:06,VALID,917.043,VALID,0.0,VALID,71.262,VALID,283.657,VALID,26.134,VALID,79.0,VALID,0.922,
2018-04-06, 10:28:06,VALID,917.02,VALID,0.0,VALID,72.148,VALID,263.278,VALID,26.065,VALID,56.0,VALID,2.025,
2018-04-06, 10:29:06,VALID,917.025,VALID,0.0,VALID,73.01,VALID,248.581,VALID,25.921,VALID,84.0,VALID,1.197,
2018-04-06, 10:30:06,VALID,917.015,VALID,0.0,VALID,72.08,VALID,246.578,VALID,25.874,VALID,65.0,VALID,0.685,
2018-04-06, 10:31:06,VALID,917.012,VALID,0.0,VALID,74.17,VALID,250.371,VALID,25.879,VALID,63.0,VALID,0.96,
2018-04-06, 10:32:06,VALID,917.013,VALID,0.0,VALID,75.009,VALID,260.868,VALID,25.942,VALID,55.0,VALID,1.258,
2018-04-06, 10:33:06,VALID,916.987,VALID,0.0,VALID,73.993,VALID,266.592,VALID,25.959,VALID,63.0,VALID,1.862,
2018-04-06, 10:34:06,VALID,916.995,VALID,0.0,VALID,73.998,VALID,284.617,VALID,25.769,VALID,85.0,VALID,2.182,
2018-04-06, 10:35:06,VALID,917.013,VALID,0.0,VALID,73.648,VALID,339.152,VALID,25.622,VALID,92.0,VALID,2.059,
2018-04-06, 10:36:06,VALID,916.988,VALID,0.0,VALID,75.075,VALID,395.693,VALID,25.508,VALID,76.0,VALID,2.122,